Location: Miss�
(46.9484°N, 0.1922°W)
Time: 03:31:24
(UTC+00:00)

SL-08 RB Rocket - Pass Details

Date: 02 March 2021
Orbit: 647 x 683 km, 97.8° (Epoch: 16 April)

Event Time Altitude Azimuth Distance (km) Brightness Sun altitude
Rises 18:19:42 0° 139° (SE) 2,967 6.7 -6.2°
Reaches altitude 10° 18:22:05 10° 129° (SE) 2,065 5.8 -6.6°
Maximum altitude 18:26:04 32° 67° (ENE) 1,143 4.4 -7.3°
Drops below altitude 10° 18:30:06 10° 5° (N) 2,099 6.2 -8.0°
Sets 18:32:31 0° 356° (N) 3,023 7.1 -8.4°
